Location: Demmingen
(48.6757°N, 10.4375°E)
Time: 03:03:23
(UTC+00:00)

SL-8 R/B - Pass Details

Date: 23 May 2024
Orbit: 652 x 662 km, 48.4° (Epoch: 19 June)

Event Time Altitude Azimuth Distance (km) Brightness Sun altitude
Rises 00:58:50 0° 284° (WNW) 2,977 6.9 -16.9°
Reaches altitude 10° 01:01:16 10° 278° (W) 2,065 6.1 -16.7°
Maximum altitude 01:05:44 41° 208° (SSW) 948 4.0 -16.4°
Drops below altitude 10° 01:10:12 10° 139° (SE) 2,064 6.0 -16.1°
Sets 01:12:38 0° 132° (SE) 2,975 6.9 -15.9°
